EW2549 Weather Reports


Display with metric or nautical units.
time (UTC)temp
F
wind
direction
speed
MPH
gust
MPH
rain 1hr
in
rain 24hr
in
rain mn
in
humidity
%
barometer
mb
20260502211536 75 124 0.0 7.0 0.00 0.00 0.00 11 1012.9
20260502210033 73 128 1.0 7.0 0.00 0.00 0.00 11 1013.2
20260502204537 73 186 0.0 5.0 0.00 0.00 0.00 13 1013.5
20260502203043 71 118 0.0 4.0 0.00 0.00 0.00 15 1013.6
20260502201527 71 68 0.0 7.0 0.00 0.00 0.00 14 1013.9
20260502200024 71 98 0.0 5.0 0.00 0.00 0.00 15 1014.0
20260502194527 70 102 0.0 8.0 0.00 0.00 0.00 15 1014.3
20260502193021 70 180 3.0 9.0 0.00 0.00 0.00 17 1014.5
20260502191519 70 98 1.0 6.0 0.00 0.00 0.00 17 1014.8
20260502190020 69 94 0.0 5.0 0.00 0.00 0.00 16 1015.1
20260502184515 71 200 3.0 7.0 0.00 0.00 0.00 17 1015.4
20260502183011 69 121 0.0 5.0 0.00 0.00 0.00 18 1015.6
20260502181509 68 105 0.0 6.0 0.00 0.00 0.00 18 1015.8
20260502163105 63 211 1.0 6.0 0.00 0.00 0.00 21 1017.0
20260502161559 62 100 1.0 6.0 0.00 0.00 0.00 21 1017.1
20260502151533 56 151 0.0 0.0 0.00 0.00 0.00 30 1017.9
20260502123008 34 9 0.0 0.0 0.00 0.00 0.00 64 1018.1
20260502121505 34 9 0.0 0.0 0.00 0.00 0.00 63 1017.9
20260502114608 35 9 0.0 0.0 0.00 0.00 0.00 58 1017.7
20260502113127 36 9 0.0 0.0 0.00 0.00 0.00 58 1017.7
20260502110055 37 9 0.0 0.0 0.00 0.00 0.00 57 1017.5
20260502104552 37 245 0.0 0.0 0.00 0.00 0.00 57 1017.5
20260502103050 38 245 0.0 0.0 0.00 0.00 0.00 55 1017.6
20260502101548 38 245 0.0 0.0 0.00 0.00 0.00 53 1017.6
20260502071531 40 336 0.0 0.0 0.00 0.00 0.00 50 1018.1
20260502070028 41 336 0.0 0.0 0.00 0.00 0.00 49 1018.3
20260502064529 41 336 0.0 0.0 0.00 0.00 0.00 49 1018.3
20260502063024 42 340 0.0 0.0 0.00 0.00 0.00 47 1018.3
20260502061521 42 360 0.0 0.0 0.00 0.00 0.00 46 1018.3
20260502060018 43 360 0.0 0.0 0.00 0.00 0.00 44 1018.4
20260502054518 44 360 0.0 0.0 0.00 0.00 0.00 44 1018.3
20260502053018 44 5 0.0 0.0 0.00 0.00 0.00 41 1018.4
20260502051524 44 5 0.0 0.0 0.00 0.00 0.00 42 1018.4
20260502050017 43 5 0.0 0.0 0.00 0.00 0.00 43 1018.5
20260502044516 43 5 0.0 0.0 0.00 0.00 0.00 42 1018.5
20260502043016 43 5 0.0 0.0 0.00 0.00 0.00 42 1018.4
20260502041516 44 5 0.0 0.0 0.00 0.00 0.00 42 1018.1
20260502040116 44 5 0.0 0.0 0.00 0.00 0.00 42 1018.0
20260502034516 45 5 0.0 0.0 0.00 0.00 0.00 39 1017.7
20260502033014 46 5 0.0 0.0 0.00 0.00 0.00 36 1017.5
20260502031514 48 5 0.0 0.0 0.00 0.00 0.00 35 1017.2
20260502030014 49 5 0.0 0.0 0.00 0.00 0.00 33 1017.0
20260502024522 50 5 0.0 0.0 0.00 0.00 0.00 32 1016.8
20260502023016 52 5 0.0 0.0 0.00 0.00 0.00 29 1016.6
20260502021512 54 5 0.0 0.0 0.00 0.00 0.00 27 1016.4
20260502020013 55 5 0.0 0.0 0.00 0.00 0.00 25 1016.3
20260502014512 57 5 0.0 0.0 0.00 0.00 0.00 23 1016.2
20260502013013 59 5 0.0 0.0 0.00 0.00 0.00 22 1016.0
20260502011511 60 5 0.0 0.0 0.00 0.00 0.00 20 1015.8
20260502010019 61 5 0.0 0.0 0.00 0.00 0.00 19 1015.8
20260502004513 62 360 0.0 0.0 0.00 0.00 0.00 19 1015.8
20260502003009 63 9 0.0 3.0 0.00 0.00 0.00 17 1015.7
20260502001509 64 108 0.0 5.0 0.00 0.00 0.00 18 1015.8
20260502000011 64 132 0.0 2.0 0.00 0.00 0.00 18 1015.8
20260501234506 64 355 0.0 1.0 0.00 0.00 0.00 18 1015.8
20260501233005 64 338 0.0 6.0 0.00 0.00 0.00 18 1015.9
20260501231503 64 270 0.0 1.0 0.00 0.00 0.00 19 1016.1
20260501230002 64 79 1.0 6.0 0.00 0.00 0.00 19 1016.2
20260501224603 63 315 0.0 5.0 0.00 0.00 0.00 20 1016.2
20260501223059 64 64 0.0 7.0 0.00 0.00 0.00 20 1016.1
20260501221600 64 96 1.0 7.0 0.00 0.00 0.00 19 1016.3
20260501213059 63 99 2.0 10.0 0.00 0.00 0.00 21 1017.1